Home   Weather   Arnhem   Past weeks

Flag for Netherlands Past Weather in Arnhem, Netherlands — Yesterday and Last 2 Weeks

Now
54 °F

Mostly cloudy.


Feels Like: 53 °F
Forecast: 47 / 62 °F
Wind: 3 mph from Southeast

Location: Deelen

Current Time: Oct 1, 2016 at 5:23:02 AM

Latest Report: Oct 1, 2016 at 4:55 AM


Visibility: N/A

Pressure: 29.83 "Hg

Humidity: 88%

Dew Point: 50 °F

Location of ArnhemLocation

Past Weather in Arnhem — Graph

°F

Arnhem Temperature Yesterday

Maximum temperature yesterday: 64 °F (at 1:55 PM)
Minimum temperature yesterday: 54 °F (at 8:25 PM)
Average temperature yesterday: 58 °F

High & Low Weather Summary for the Past Weeks

 TemperatureHumidityPressure
High79 °F (Sep 25, 3:25 PM)100% (Sep 16, 4:25 AM)30.30 "Hg (Sep 16, 4:25 AM)
Low39 °F (Sep 27, 5:55 AM)38% (Sep 27, 3:25 PM)29.83 "Hg (Oct 1, 3:25 AM)
Average59 °F75%30.09 "Hg
* Reported Sep 16 3:25 AM — Oct 1 3:55 AM, Arnhem, Weather by CustomWeather, © 2016

Note: Actual official high and low records may vary slightly from our data, if they occured in-between our weather recording intervals... More about our weather records

Advertising

Arnhem Weather History for the Previous 24 Hours

Scroll right to see more
 ConditionsComfort  
Time TempWeatherWind HumidityBarometerVisibility
3:55 AM
Sat, Oct 1
54 °FMostly cloudy.3 mph88%29.83 "HgN/A
3:25 AM54 °FOvercast.3 mph82%29.83 "HgN/A
2:55 AM54 °FMostly cloudy.3 mph82%29.86 "HgN/A
2:25 AM54 °FOvercast.3 mph82%29.86 "HgN/A
1:55 AM54 °FMostly cloudy.3 mph82%29.89 "HgN/A
1:25 AM54 °FPartly cloudy.3 mph82%29.89 "HgN/A
12:55 AM54 °FMostly cloudy.2 mph82%29.89 "HgN/A
12:25 AM54 °FMostly cloudy.3 mph82%29.89 "HgN/A
11:55 PM
Fri, Sep 30
54 °FMostly cloudy.2 mph82%29.89 "HgN/A
11:25 PM54 °FPassing clouds.5 mph77%29.92 "HgN/A
10:55 PM54 °FOvercast.2 mph77%29.92 "HgN/A
10:25 PM54 °FPassing clouds.3 mph77%29.92 "HgN/A
9:55 PM54 °FOvercast.3 mph77%29.92 "HgN/A
9:25 PM54 °FPassing clouds.3 mph82%29.92 "HgN/A
8:55 PM55 °FOvercast.3 mph77%29.92 "HgN/A
8:25 PM54 °FOvercast.1 mph82%29.92 "HgN/A
7:55 PM55 °FPassing clouds.3 mph72%29.92 "HgN/A
7:25 PM57 °FPassing clouds.3 mph67%29.92 "HgN/A
6:55 PM59 °FCool.6 mph63%29.92 "HgN/A
6:25 PM61 °FPassing clouds.7 mph59%29.92 "HgN/A
5:55 PM63 °FPassing clouds.13 mph52%29.92 "HgN/A
5:25 PM64 °FPassing clouds.12 mph52%29.92 "HgN/A
4:55 PM64 °FMild.14 mph52%29.92 "HgN/A
4:25 PM63 °FPassing clouds.16 mph52%29.92 "HgN/A
3:55 PM64 °FBroken clouds.12 mph56%29.92 "HgN/A
3:25 PM64 °FPartly sunny.14 mph56%29.92 "HgN/A
2:55 PM63 °FPassing clouds.12 mph56%29.92 "HgN/A
2:25 PM64 °FPartly sunny.16 mph56%29.92 "HgN/A
1:55 PM64 °FBroken clouds.15 mph60%29.92 "HgN/A
1:25 PM61 °FBroken clouds.14 mph72%29.92 "HgN/A
12:55 PM61 °FMostly cloudy.14 mph72%29.92 "HgN/A
12:25 PM59 °FPartly sunny.13 mph77%29.92 "HgN/A
11:55 AM59 °FMore clouds than sun.14 mph77%29.92 "HgN/A
11:25 AM59 °FPartly sunny.13 mph82%29.92 "HgN/A
10:55 AM59 °FBroken clouds.9 mph88%29.92 "HgN/A
10:25 AM57 °FBroken clouds.8 mph94%29.92 "HgN/A
9:55 AM57 °FLow clouds.8 mph94%29.92 "HgN/A
9:25 AM55 °FScattered clouds.9 mph100%29.92 "HgN/A
8:55 AM55 °FFog.7 mph94%29.89 "Hg5 mi
8:25 AM55 °FFog.8 mph94%29.89 "Hg5 mi
7:55 AM55 °FFog.8 mph94%29.89 "Hg4 mi
7:25 AM55 °FFog.8 mph94%29.89 "Hg5 mi
6:55 AM55 °FFog.8 mph94%29.89 "Hg4 mi
6:25 AM55 °FFog.7 mph94%29.89 "Hg4 mi
5:55 AM55 °FFog.6 mph100%29.89 "Hg4 mi
5:25 AM55 °FFog.7 mph100%29.89 "Hg4 mi
Weather by CustomWeather, © 2016

See weather overviewHow to use our weather pages